{"data":{"norad_id":40425,"epoch":"2026-05-24T16:55:52.652064Z","epoch_age_seconds":97113,"freshness":"FRESH","line1":"1 40425U 15010B   26144.70547051 -.00000028  00000+0  00000+0 0  9997","line2":"2 40425   0.0099 140.0314 0000142 305.5978 295.7517  1.00269784 41156","mean_motion":1.00269784,"eccentricity":1.42e-5,"inclination_deg":0.0099,"raan_deg":140.0314,"arg_perigee_deg":305.5978,"mean_anomaly_deg":295.7517,"bstar":0,"rev_number":4115,"period_min":1436.1255630111,"perigee_km":35786.557176298,"apogee_km":35787.754670617,"semimajor_km":42165.292923458,"source":"CELESTRAK","updated_at":"2026-05-25T13:38:13.955436Z"}}